Tracking 31027 objects as of 19-Jul-2025
HD Live streaming from Space Station
objects crossing your sky now

DELTA 1 DEB

Track DELTA 1 DEB now!
10-day predictions


NORAD ID: 26036
Int'l Code: 1975-052KA
Perigee: 616.8 km
Apogee: 714.5 km
Inclination: 99.9 °
Period: 97.9 minutes
Semi major axis: 7036 km
RCS: 0.0044 m2 (small)
Launch date: June 12, 1975
Source: United States (US)
Launch site: AIR FORCE WESTERN TEST RANGE (AFWTR)

Note: This is SATELLITE DEBRIS
Your satellite tracking list
MAROC TUBSAT
Track 1 satellite(s)




NASA's NSSDC Master Catalog

Two Line Element Set (TLE):
1 26036U 75052KA  25199.83316196  .00009562  00000-0  15174-2 0  9991
2 26036  99.9490 346.6464 0069420 351.3349   8.6647 14.70815598385220
Source of the keplerian elements: AFSPC